Regional Weather Roundup
Issued by NWS Columbia, SC

Home | Current Version | Previous Version | Text Only | Print | Product List | Glossary On
Versions: 1 2 3 4 5 6 7 8 9 10 11 12 13 14 15 16 17 18 19 20 21 22 23 24 25 26 27 28 29 30 31 32 33 34 35 36 37 38 39 40 41 42 43 44 45 46 47 48 49 50
000
ASUS42 KCAE 301510
RWRCAE
REGIONAL WEATHER ROUNDUP
NATIONAL WEATHER SERVICE COLUMBIA SC
1000 AM EST FRI JAN 30 2015

NOTE: "FAIR" INDICATES FEW OR NO CLOUDS BELOW 12,000 FEET WITH NO
SIGNIFICANT WEATHER AND/OR OBSTRUCTIONS TO VISIBILITY.

NOT ALL STATIONS ARE QUALITY CONTROLLED BY THE NATIONAL
WEATHER SERVICE. USE DATA WITH CAUTION...ESPECIALLY
DEWPOINT OBSERVATIONS.

SCZ001>056-GAZ040-063>065-077-301600-
...UPSTATE SOUTH CAROLINA...

CITY           SKY/WX    TMP DP  RH WIND       PRES   REMARKS
ANDERSON       SUNNY     45  24  43 NW9       30.21R
LIBERTY        SUNNY     44  25  46 MISG      30.18R
SPARTANBURG    SUNNY     43  23  45 NW15G28   30.20R
CLEMSON        SUNNY     45  20  36 NW12      30.21R
GREENVILLE     SUNNY     44  21  40 N12       30.20R
GREENWOOD      SUNNY     46  26  45 N10       30.22R
GREER          SUNNY     42  22  44 N12G22    30.20R
ROCK HILL      SUNNY     44  24  45 N18       30.17R
CHESTER        SUNNY     46  21  36 NW10G24   30.17R
LAURENS        SUNNY     43  32  65 N12G20    30.20R


...CENTRAL SOUTH CAROLINA...

CITY           SKY/WX    TMP DP  RH WIND       PRES   REMARKS
COLUMBIA APT   MOSUNNY   49  27  42 N12G24    30.17R
COLUMBIA OWENS SUNNY     48  27  44 N8G18     30.18R
DARLINGTON     SUNNY     48  28  46 NW17G29   30.14R
FLORENCE       MOSUNNY   50  31  48 N17G25    30.12R
MCENTIRE ANGB  SUNNY     49  29  46 NW15      30.17R
ORANGEBURG     SUNNY     50  29  44 N13G22    30.16R
SUMTER SHAW    SUNNY     49  29  46 N16G26    30.13R
NEWBERRY       SUNNY     45  25  45 N17G24    30.23R
AIKEN          FAIR      46  34  61 NW10G16   30.20R
BARNWELL       FAIR      50  36  57 NW8G16    30.18R
MANNING        FAIR      52  32  46 N10G24    30.13R
CAMDEN         FAIR      46  27  46 N16G23    30.16R
LANCASTER      SUNNY     45  25  45 NW12G21   30.17R
WINNSBORO      SUNNY     45  28  53 NW12G22   30.16R


...EASTERN AND COASTAL SOUTH CAROLINA...

CITY           SKY/WX    TMP DP  RH WIND       PRES   REMARKS
MYRTLE BEACH   SUNNY     52  32  46 NW17G25   30.09R
N MYRTLE BCH   MOSUNNY   51  32  48 N13G23    30.07R
CONWAY         FAIR      50  32  50 NW8G17    30.10R HAZE
MARION         FAIR      50  30  46 NW14G21   30.11R
HARTSVILLE     FAIR      50  32  50 N12G20    30.14R
FLORENCE       MOSUNNY   50  31  48 N17G25    30.12R
DARLINGTON     SUNNY     48  28  46 NW17G29   30.14R
CHARLESTON APT MOSUNNY   55  35  47 N21G28    30.12R
MOUNT PLEASANT FAIR      55  37  50 NW16G24   30.10R
BEAUFORT       MOSUNNY   54  38  54 NW17G25   30.15R


...EASTERN GEORGIA...

CITY           SKY/WX    TMP DP  RH WIND       PRES   REMARKS
AUGUSTA BUSH F SUNNY     49  30  48 NW13G20   30.21R
AUGUSTA DANIEL SUNNY     48  30  49 NW15G22   30.21R
THOMSON        SUNNY     47  33  56 W16       30.27R
WASHINGTON     FAIR      46  32  57 NW13G18   30.22R
CLAXTON        FAIR      50  37  62 NW8G21    30.20R
SYLVANIA       SUNNY     51  39  64 N13G20    30.19R
STATESBORO     SUNNY     50  37  59 N12G21    30.19R
SAVANNAH       MOSUNNY   53  38  56 NW17G26   30.16R


...SOUTHERN NORTH CAROLINA...

CITY           SKY/WX    TMP DP  RH WIND       PRES   REMARKS
CHARLOTTE      MOSUNNY   44  21  40 NW17G26   30.17R
MONROE         SUNNY     44  21  40 NW17G32   30.15R
WADESBORO      SUNNY     46  21  37 NW15G30   30.15R
ROCKINGHAM       N/A     45  26  47 NW12G23   30.12R
RUTHERFORDTON  SUNNY     42  22  45 N9        30.18R
ASHEVILLE      FLURRIES  33  22  63 N22G38    30.18R WCI  21

$$



USA.gov is the U.S. government's official web portal to all federal, state and local government web resources and services.